Satellite-Ground Cal/Val Site Overpasses Predictions

Prediction of Satellite NPP Overpassing Cal/Val Site: Antarctic Dome C

Ground Cal/Val Site Location: Latitude: -75.10, Longitude: 123.35; Satellite-Ground Site NADIR distance within 100 km.

Table of predicted overpasses for the next 14.0 days since TLE Epoch: 9/21/2018
Interval Starting Time Ending Time Minimum Distance Time Minimum Distance (km)
1 09/23/2018 15:08:07 09/23/2018 15:08:13 09/23/2018 15:08:10 96.71
2 09/24/2018 14:49:06 09/24/2018 14:49:35 09/24/2018 14:49:21 14.43
3 09/26/2018 07:31:56 09/26/2018 07:32:26 09/26/2018 07:32:11 2.52
4 09/29/2018 14:55:25 09/29/2018 14:55:53 09/29/2018 14:55:39 21.98
5 09/30/2018 14:36:43 09/30/2018 14:36:58 09/30/2018 14:36:51 84.92
6 10/01/2018 07:38:15 10/01/2018 07:38:43 10/01/2018 07:38:29 33.68
7 10/02/2018 07:19:31 10/02/2018 07:19:49 10/02/2018 07:19:40 76.37
8 10/04/2018 15:01:46 10/04/2018 15:02:10 10/04/2018 15:01:58 59.09


NCC Satellite Cal/Val Overpasses Prediction Service
